Location: Berlise
(49.6641°N, 4.1077°E)
Time: 18:48:07
(UTC+00:00)

Envisat - Pass Details

Date: 27 January 2021
Orbit: 764 x 766 km, 98.1° (Epoch: 27 February)

Event Time Altitude Azimuth Distance (km) Brightness Sun altitude
Rises 04:58:23 0° 19° (NNE) 3,245 6.5 -23.2°
Reaches altitude 10° 05:00:51 10° 27° (NNE) 2,314 5.8 -22.8°
Maximum altitude 05:05:37 39° 97° (E) 1,132 4.4 -22.0°
Drops below altitude 10° 05:10:21 10° 166° (SSE) 2,296 5.7 -21.3°
Sets 05:12:47 0° 174° (S) 3,217 6.4 -20.9°
